Stations météo

réclame
Mon MeteoGroup
Svenska Hogarna A, Suède (2498): Température de l'air & dewpoint: 18.01.2020 16:00:00 - 24.01.2020 16:00:00 (CET)Svenska Hogarna A, Suède (2498): Vitesse du vent & gusts: 18.01.2020 16:00:00 - 24.01.2020 16:00:00 (CET)Svenska Hogarna A, Suède (2498): Direction du vent: 18.01.2020 16:00:00 - 24.01.2020 16:00:00 (CET)Svenska Hogarna A, Suède (2498): reduced air pressure: 18.01.2020 16:00:00 - 24.01.2020 16:00:00 (CET)Svenska Hogarna A, Suède (2498): visibility: 18.01.2020 16:00:00 - 24.01.2020 16:00:00 (CET)Svenska Hogarna A, Suède (2498): Quantités de précipitations: 18.01.2020 16:00:00 - 24.01.2020 16:00:00 (CET)
Date & Time tt [°C] td [°C] ff [km/h] ff [knt] fx [km/h] fx [knt] dd ppp [hPa] vv [km] rr [mm]
24.01.2020 16:00:00 4,5 2,9 21 11 31 17 WSW 1002,6 39 0,0
24.01.2020 15:00:00 4,8 3,0 21 11 26 14 WSW 1002,5 44 0,0
24.01.2020 14:00:00 5,2 3,2 22 12 31 17 W 1002,8 37 0,0
24.01.2020 13:00:00 5,6 3,3 29 16 41 22 W 1002,7 39 0,0
24.01.2020 12:00:00 5,6 3,4 36 19 46 25 W 1002,9 41 0,0
24.01.2020 11:00:00 5,5 3,5 37 20 48 26 W 1002,7 35 0,0
24.01.2020 10:00:00 4,8 3,3 34 18 40 22 W 1002,8 39 0,0
24.01.2020 09:00:00 4,7 3,4 29 16 36 19 W 1003,2 33 0,0
24.01.2020 08:00:00 4,3 3,1 26 14 35 19 W 1003,1 42 0,0
24.01.2020 07:00:00 4,4 3,1 29 16 39 21 W 1003,1 39 0,0
24.01.2020 06:00:00 4,5 3,2 32 17 44 24 W 1003,5 33 0,0
24.01.2020 05:00:00 4,7 3,4 34 18 42 23 W 1003,9 40 0,0
24.01.2020 04:00:00 5,0 3,3 35 19 51 27 W 1004,1 41 0,0
24.01.2020 03:00:00 5,3 3,5 40 22 51 28 W 1004,4 44 0,0
24.01.2020 02:00:00 5,2 3,7 35 19 43 23 W 1004,8 32 0,0
24.01.2020 01:00:00 4,4 3,2 14 8 33 18 WSW 1005,9 31 0,0
24.01.2020 00:00:00 4,8 3,8 23 12 29 16 WSW 1005,9 37 0,0
23.01.2020 23:00:00 4,8 3,5 22 12 39 21 WSW 1006,4 36 0,0
23.01.2020 22:00:00 4,7 3,2 28 15 35 19 WSW 1006,7 36 0,0
23.01.2020 21:00:00 4,6 3,1 29 15 36 19 W 1007,1 30 0,0
23.01.2020 20:00:00 4,4 2,7 28 15 44 24 W 1007,9 38 0,0
23.01.2020 19:00:00 4,2 2,5 37 20 45 25 W 1008,2 37 0,0
23.01.2020 18:00:00 3,6 1,6 34 18 50 27 WSW 1008,8 44 0,0
23.01.2020 17:00:00 3,6 0,8 39 21 50 27 WSW 1009,1 43 0,0
23.01.2020 16:00:00 3,4 0,3 29 16 50 27 SW 1010,6 40 0,0
23.01.2020 15:00:00 3,5 -0,7 42 23 52 28 SW 1011,8 46 0,0
23.01.2020 14:00:00 3,3 -0,3 43 23 51 28 SW 1012,3 42 0,0
23.01.2020 13:00:00 3,2 -0,6 38 20 50 27 SSW 1013,8 45 0,0
23.01.2020 12:00:00 3,3 -0,7 39 21 48 26 SW 1015,8 47 0,0
23.01.2020 11:00:00 2,7 -1,7 34 19 44 24 SW 1017,1 40 0,0
23.01.2020 10:00:00 1,9 -2,2 28 15 37 20 SW 1018,3 35 0,0
23.01.2020 09:00:00 1,2 -2,0 23 12 - - WSW 1019,5 35 0,0
23.01.2020 08:00:00 0,9 -2,9 25 14 33 18 WSW 1020,7 44 0,0
23.01.2020 07:00:00 0,9 -3,0 27 15 36 20 W 1021,1 31 0,0
23.01.2020 06:00:00 0,9 -3,2 32 17 38 21 W 1021,8 31 0,0
23.01.2020 05:00:00 1,1 -2,8 34 18 39 21 W 1022,3 42 0,0
23.01.2020 04:00:00 1,2 -2,9 34 18 42 23 W 1022,9 45 0,0
23.01.2020 03:00:00 1,4 -2,7 36 19 43 23 W 1023,3 50 0,0
23.01.2020 02:00:00 1,7 -2,4 35 19 42 23 WNW 1023,6 39 0,0
23.01.2020 01:00:00 2,1 -2,2 34 18 44 24 WNW 1023,4 50 0,0
23.01.2020 00:00:00 2,3 -2,2 36 20 49 27 WNW 1023,3 48 0,0
22.01.2020 23:00:00 2,5 -2,0 39 21 51 27 WNW 1023,1 43 0,0
22.01.2020 22:00:00 2,8 -1,7 41 22 52 28 WNW 1022,8 50 0,0
22.01.2020 21:00:00 2,9 -1,8 40 22 51 28 WNW 1022,6 50 0,0
22.01.2020 20:00:00 3,1 -1,6 41 22 51 28 WNW 1022,2 49 0,0
22.01.2020 19:00:00 3,2 -1,2 38 20 45 24 WNW 1021,8 42 0,0
22.01.2020 18:00:00 3,1 -1,3 35 19 54 29 WNW 1021,6 50 0,0
22.01.2020 17:00:00 3,6 -1,6 34 18 59 32 NW 1020,7 50 0,0
22.01.2020 16:00:00 3,5 -1,3 37 20 64 35 NNW 1019,8 50 0,0
22.01.2020 15:00:00 3,6 -0,6 39 21 63 34 NNW 1018,8 46 0,0
22.01.2020 14:00:00 3,8 -0,6 39 21 66 36 NNW 1017,5 42 0,0
22.01.2020 13:00:00 4,0 -0,6 38 20 72 39 NNW 1016,2 43 0,0
22.01.2020 12:00:00 4,3 -1,1 41 22 69 38 NW 1015,2 37 0,0
22.01.2020 11:00:00 3,6 -2,8 50 27 67 36 WNW 1013,8 37 0,0
22.01.2020 10:00:00 3,5 -2,9 51 28 73 39 WNW 1012,7 35 0,0
22.01.2020 09:00:00 3,3 -3,1 54 29 68 37 WNW 1011,9 45 0,0
22.01.2020 08:00:00 3,5 -2,7 53 29 69 37 WNW 1011,0 45 0,0
22.01.2020 07:00:00 3,6 -2,6 52 28 67 36 WNW 1010,6 45 0,0
22.01.2020 06:00:00 3,8 -1,8 49 27 71 38 W 1010,6 48 0,0
22.01.2020 05:00:00 4,3 -1,9 58 31 75 40 WNW 1010,1 44 0,0
22.01.2020 04:00:00 4,5 -1,3 53 29 66 35 WNW 1010,1 50 0,0
22.01.2020 03:00:00 4,9 -0,9 50 27 68 37 WNW 1010,4 49 0,0
22.01.2020 02:00:00 5,3 -1,2 54 29 63 34 WNW 1010,2 50 0,0
22.01.2020 01:00:00 5,3 -0,7 45 24 56 30 WNW 1010,9 41 0,0
22.01.2020 00:00:00 5,3 -0,3 40 21 47 26 W 1011,4 48 0,0
21.01.2020 23:00:00 5,5 -0,3 39 21 53 29 W 1012,5 36 0,0
21.01.2020 22:00:00 5,3 0,3 38 20 47 25 W 1013,4 46 0,0
21.01.2020 21:00:00 5,2 1,3 34 18 41 22 W 1014,1 49 0,0
21.01.2020 20:00:00 5,2 0,4 30 16 39 21 WSW 1014,9 46 0,0
21.01.2020 19:00:00 5,3 0,3 36 20 43 23 W 1016,3 50 0,0
21.01.2020 18:00:00 5,1 1,2 33 18 43 23 W 1016,7 50 0,0
21.01.2020 17:00:00 5,2 2,4 28 15 39 21 WSW 1017,5 50 0,0
21.01.2020 16:00:00 5,2 2,2 28 15 42 23 W 1017,3 48 0,0
21.01.2020 15:00:00 5,3 1,4 30 16 37 20 W 1017,7 49 0,0
21.01.2020 14:00:00 5,4 1,5 29 16 39 21 W 1017,0 48 0,0
21.01.2020 13:00:00 5,8 3,5 27 15 34 18 W 1017,0 42 0,0
21.01.2020 12:00:00 5,7 3,5 29 16 42 23 W 1016,8 45 0,0
21.01.2020 11:00:00 5,6 4,1 35 19 40 22 W 1016,3 26 0,0
21.01.2020 10:00:00 5,7 4,5 29 16 45 24 W 1015,5 18 0,0
21.01.2020 09:00:00 6,0 4,2 40 22 54 29 W 1014,6 20 0,0
21.01.2020 08:00:00 - 4,3 44 24 54 29 W 1013,6 22 0,0
21.01.2020 07:00:00 - 4,5 42 23 56 31 W 1012,9 19 0,0
21.01.2020 06:00:00 - 4,6 45 25 55 30 W 1013,0 22 0,0
21.01.2020 05:00:00 - 4,6 44 24 54 29 W 1013,1 26 0,0
21.01.2020 04:00:00 - 4,4 40 21 57 31 W 1013,5 26 0,0
21.01.2020 03:00:00 - 4,7 49 27 71 38 W 1013,5 39 0,0
21.01.2020 02:00:00 - 4,6 50 27 61 33 WSW 1014,0 33 0,0
21.01.2020 01:00:00 5,9 4,1 35 19 59 32 WSW 1015,5 39 0,0
21.01.2020 00:00:00 - 4,1 48 26 63 34 WSW 1016,2 31 0,0
20.01.2020 23:00:00 5,9 3,7 41 22 55 30 WSW 1017,2 28 0,0
20.01.2020 22:00:00 5,6 3,4 36 19 46 25 WSW 1018,0 22 0,0
20.01.2020 21:00:00 5,6 3,3 32 17 45 24 WSW 1019,2 24 0,0
20.01.2020 20:00:00 5,6 2,9 38 20 47 26 WSW 1020,0 28 0,0
20.01.2020 19:00:00 5,1 3,0 34 18 44 24 WSW 1020,8 26 0,0
20.01.2020 18:00:00 4,7 2,6 34 18 42 23 SW 1021,6 27 0,0
20.01.2020 17:00:00 4,7 2,4 26 14 39 21 WSW 1022,4 37 0,0
20.01.2020 16:00:00 4,3 2,5 31 17 42 23 SW 1022,9 27 0,0
20.01.2020 15:00:00 4,3 2,2 35 19 44 24 SW 1023,4 31 0,0
20.01.2020 14:00:00 4,3 2,0 36 19 - - WSW 1024,3 36 0,0
20.01.2020 13:00:00 4,0 1,5 43 23 - - WSW 1024,8 34 0,1
20.01.2020 12:00:00 3,9 0,9 38 21 53 29 WSW 1025,8 44 0,0
20.01.2020 11:00:00 3,7 0,6 42 23 57 31 SW 1026,3 35 0,0
20.01.2020 10:00:00 3,5 -0,3 41 22 57 31 WSW 1027,2 41 0,0
20.01.2020 09:00:00 3,1 -0,9 37 20 - - SW 1027,3 43 0,0
20.01.2020 08:00:00 3,2 -2,1 35 19 47 25 WSW 1028,3 47 0,0
20.01.2020 07:00:00 2,9 -1,8 31 17 40 21 WSW 1028,6 49 0,0
20.01.2020 06:00:00 2,9 -2,2 32 18 43 23 WSW 1029,1 45 0,0
20.01.2020 05:00:00 2,4 -1,6 29 16 40 21 WSW 1029,9 45 0,0
20.01.2020 04:00:00 2,3 -1,1 31 17 41 22 WSW 1030,3 45 0,0
20.01.2020 03:00:00 2,3 -1,1 31 17 37 20 W 1030,7 50 0,0
20.01.2020 02:00:00 2,4 -1,6 31 17 41 22 W 1030,7 49 0,0
20.01.2020 01:00:00 2,6 -1,4 30 16 40 22 W 1030,6 44 0,0
20.01.2020 00:00:00 2,8 -0,8 28 15 37 20 W 1030,6 48 0,0
19.01.2020 23:00:00 2,9 -0,9 29 16 37 20 W 1030,6 44 0,0
19.01.2020 22:00:00 3,1 -0,7 31 17 40 21 W 1030,1 50 0,0
19.01.2020 21:00:00 3,3 -0,3 29 16 42 23 W 1029,2 47 0,0
19.01.2020 20:00:00 3,7 0,0 34 18 - - W 1029,2 50 0,0
19.01.2020 19:00:00 4,0 0,2 35 19 43 23 W 1028,6 50 0,0
19.01.2020 18:00:00 4,0 0,7 31 17 37 20 W 1027,8 50 0,0
19.01.2020 17:00:00 4,1 0,8 28 15 38 20 W 1026,7 45 0,0
19.01.2020 16:00:00 4,2 1,1 29 16 39 21 W 1025,6 46 0,0
19.01.2020 15:00:00 4,5 1,2 31 17 40 22 W 1024,7 41 0,0
19.01.2020 14:00:00 4,6 1,1 32 18 42 23 W 1023,7 48 0,0
19.01.2020 13:00:00 4,6 1,3 31 17 41 22 W 1022,8 41 0,0
19.01.2020 12:00:00 4,4 1,6 31 17 42 23 W 1021,8 44 0,0
19.01.2020 11:00:00 4,2 1,6 34 19 44 24 W 1020,9 44 0,0
19.01.2020 10:00:00 4,0 1,9 35 19 45 24 W 1019,6 40 0,0
19.01.2020 09:00:00 3,8 2,5 27 15 34 19 WSW 1018,9 42 0,0
19.01.2020 08:00:00 3,6 2,4 23 13 31 17 W 1017,4 50 0,0
19.01.2020 07:00:00 3,7 2,7 28 15 34 18 W 1016,1 50 0,0
19.01.2020 06:00:00 3,9 2,9 24 13 35 19 W 1014,9 50 0,0
19.01.2020 05:00:00 4,4 3,2 27 15 34 18 W 1013,6 50 0,0
19.01.2020 04:00:00 4,5 3,5 24 13 37 20 WSW 1012,2 39 0,0
19.01.2020 03:00:00 4,6 3,3 29 16 36 19 SW 1011,0 41 0,0
19.01.2020 02:00:00 4,4 2,9 29 15 38 21 SW 1009,9 46 0,0
19.01.2020 01:00:00 4,7 3,2 32 17 46 25 SW 1009,1 37 0,0
19.01.2020 00:00:00 4,7 3,4 35 19 45 25 SW 1008,4 38 0,0
18.01.2020 23:00:00 4,9 3,4 32 18 49 26 SW 1008,1 34 0,0
18.01.2020 22:00:00 5,0 3,2 37 20 - - SW 1007,8 30 0,0
18.01.2020 21:00:00 5,0 3,2 39 21 52 28 SSW 1007,6 33 0,0
18.01.2020 20:00:00 5,1 3,3 36 20 53 28 SSW 1007,6 44 0,0
18.01.2020 19:00:00 5,2 3,2 41 22 55 30 SSW 1007,3 41 0,0
18.01.2020 18:00:00 5,0 3,3 34 18 45 24 SSW 1007,2 28 0,0
18.01.2020 17:00:00 5,2 4,0 34 18 46 25 SSW 1007,2 22 0,0
18.01.2020 16:00:00 5,0 4,3 33 18 46 25 SSW 1007,1 17 0,0

tt = Température de l'air
td = dewpoint
ff = Vitesse du vent
fx = gusts
dd = Direction du vent
ppp = reduced air pressure
vv = visibility
rr = Quantités de précipitations

stations d'obs. à proximité